Location: Rounton
(54.4000°N, 1.3500°W)
Time: 13:47:14
(UTC+00:00)

Transit 2A Rocket - Pass Details

Date: 02 December 2021
Orbit: 584 x 918 km, 66.7° (Epoch: 21 January)

Event Time Altitude Azimuth Distance (km) Brightness Sun altitude
Rises 18:06:57 0° 312° (NW) 3,564 9.0 -19.5°
Reaches altitude 10° 18:10:23 10° 294° (WNW) 2,600 8.5 -20.0°
Maximum altitude 18:14:05 17° 256° (WSW) 2,102 8.3 -20.5°
Drops below altitude 10° 18:17:42 10° 218° (SW) 2,510 8.3 -21.0°
Sets 18:20:57 0° 199° (SSW) 3,387 8.7 -21.5°
